Hovedside
METAR-TAF:

METAR-TAF

Lufthavner :

Ziguinchor, Senegal

breddegrad: 12-33N, lengdegrad: 016-16W, høyde over havet: 26 m

Gjeldene værobservasjon

Denne rapporten ble laget for 28 minutter siden, klokken 10:00 UTC
Flau vind
Temperatur 26°C
Luftfuktighet 89%
Trykk 1014 hPa
Sikt 10 km eller mer
Spredte skyer i en høyde av 1500 ft

METAR: GOGG 091000Z 00000KT 9999 SCT015 26/24 Q1014

Tid: 10:28 (10:28 UTC)


TAF: fraværende

Værobservasjoner og værvarsel for over 4000 flyplasser (METAR- og TAF-rapporter).

Tilgjengelige stasjoner er representert av de røde og gule prikkene på kartet.

Hold musepekeren over prikken for å se navnet på stasjonen.

Klikk så for å se værobservasjoner og -varsler.

For å forandre kartet kan du klikke på den grønne knappen med svart kryss for å zoome inn, på den grønne knappen med strek for å zoome ut, eller på de grønne pilene for å se tilstøtende kart.


METAR-TAF: